Norfolk, NE

3:40 AM CDT on May 26, 2017 (GMT -0500)
Stefan Memorial

Weather History for KOFK - February, 2013

Change the Weather History Date:

Thursday, February 7, 2013

  Actual Average Record
Temperature  
Mean Temperature 32 °F 25 °F  
Max Temperature 38 °F 35 °F 71 °F (1987)
Min Temperature 26 °F 14 °F -23 °F (1895)
Degree Days  
Heating Degree Days 33 40  
Month to date heating degree days 220 286  
Since 1 July heating degree days 4102 4308  
Cooling Degree Days 0 0  
Month to date cooling degree days 0 0  
Year to date cooling degree days 0 0  
Moisture  
Dew Point 25 °F    
Average Humidity 84    
Maximum Humidity 92    
Minimum Humidity 75    
Precipitation  
Precipitation 0.00 in 0.02 in 1.33 in (1928)
Month to date precipitation 0.01 0.17  
Year to date precipitation 0.25 0.76  
Snow  
Snow 0.00 in 0.30 in - ()
Month to date snowfall T 1.6  
Since 1 July snowfall 7.8 18.9  
Snow Depth 0.00 in    
Sea Level Pressure  
Sea Level Pressure 30.14 in    
Wind  
Wind Speed 13 mph (NNW)    
Max Wind Speed 25 mph    
Max Gust Speed 30 mph    
Visibility 9 miles    
Events      
T = Trace of Precipitation, MM = Missing Value Source: NWS Daily Summary

Daily Weather History Graph

Daily Weather History Graph

Search for Another Location

Airport or City:

Trip Planner

Search our weather history database for the weather conditions in past years. The results will help you decide how hot, cold, wet, or windy it might be!

Date:

Astronomy

Feb. 07, 2013 Rise Set
Actual Time 7:35 AM CST 5:52 PM CST
Civil Twilight 7:06 AM CST 6:21 PM CST
Nautical Twilight 6:33 AM CST 6:55 PM CST
Astronomical Twilight 6:00 AM CST 7:27 PM CST
Moon 5:17 AM CST (2/7) 3:17 PM CST (2/7)
Length of Visible Light 11h 15m
Length of Day
10h 17m
Waning Crescent, 9% of the Moon is Illuminated
Feb 7
Waning Crescent
Feb 10
New
Feb 17
First Quarter
Feb 25
Full
Mar 4
Last Quarter

Hourly Weather History & Observations

Time (CST) Temp. Windchill Dew Point Humidity Pressure Visibility Wind Dir Wind Speed Gust Speed Precip Events Conditions
12:56 AM 36.0 °F 29.6 °F 30.0 °F 79% 29.96 in 10.0 mi NW 8.1 mph - N/A   Clear
1:56 AM 35.1 °F 27.4 °F 28.9 °F 78% 29.97 in 10.0 mi NNW 10.4 mph - N/A   Clear
2:56 AM 36.0 °F 27.1 °F 28.0 °F 73% 29.98 in 10.0 mi NNW 13.8 mph - N/A   Clear
3:56 AM 35.1 °F 26.4 °F 28.0 °F 76% 29.98 in 10.0 mi NNW 12.7 mph - N/A   Clear
4:56 AM 34.0 °F 23.0 °F 28.0 °F 79% 29.99 in 10.0 mi NNW 18.4 mph - N/A   Mostly Cloudy
5:56 AM 33.1 °F 22.6 °F 28.0 °F 82% 30.01 in 10.0 mi NNW 16.1 mph - N/A   Clear
6:56 AM 33.1 °F 21.9 °F 27.0 °F 78% 30.04 in 10.0 mi NNW 18.4 mph - N/A   Overcast
7:56 AM 30.0 °F 18.3 °F 25.0 °F 82% 30.08 in 7.0 mi NNW 17.3 mph - N/A   Scattered Clouds
8:03 AM 28.4 °F 14.1 °F 24.8 °F 86% 30.04 in 6.0 mi NNW 24.2 mph - N/A   Mostly Cloudy
8:56 AM 28.9 °F 18.2 °F 26.1 °F 89% 30.13 in 4.0 mi NNW 13.8 mph - N/A   Overcast
10:16 AM 26.6 °F 12.4 °F 24.8 °F 93% 30.11 in 4.0 mi NNW 21.9 mph - N/A   Overcast
10:56 AM 27.0 °F 15.6 °F 24.1 °F 89% 30.17 in 6.0 mi NNW 13.8 mph 23.0 mph N/A   Overcast
11:56 AM 28.0 °F 16.1 °F 24.1 °F 85% 30.17 in 7.0 mi NNW 16.1 mph - N/A   Overcast
12:56 PM 30.0 °F 17.9 °F 24.1 °F 79% 30.17 in 9.0 mi NNW 18.4 mph - N/A   Overcast
1:56 PM 30.0 °F 18.7 °F 24.1 °F 79% 30.16 in 8.0 mi NNW 16.1 mph - N/A   Overcast
2:30 PM 30.2 °F 18.9 °F 24.8 °F 80% 30.11 in 10.0 mi NNW 16.1 mph - N/A   Overcast
2:56 PM 30.9 °F 19.4 °F 24.1 °F 76% 30.16 in 10.0 mi NNW 17.3 mph - N/A   Overcast
3:56 PM 30.0 °F 19.5 °F 24.1 °F 79% 30.17 in 10.0 mi NNW 13.8 mph - N/A   Overcast
4:56 PM 28.9 °F 17.7 °F 23.0 °F 78% 30.19 in 10.0 mi NNW 15.0 mph - N/A   Overcast
5:56 PM 28.9 °F 19.2 °F 23.0 °F 78% 30.21 in 10.0 mi NNW 11.5 mph - N/A   Overcast
6:56 PM 28.9 °F 19.2 °F 21.9 °F 75% 30.23 in 10.0 mi NNW 11.5 mph - N/A   Overcast
7:56 PM 28.0 °F 17.5 °F 21.9 °F 78% 30.25 in 10.0 mi North 12.7 mph - N/A   Overcast
8:56 PM 28.0 °F 20.0 °F 21.9 °F 78% 30.27 in 10.0 mi North 8.1 mph - N/A   Overcast
9:56 PM 27.0 °F 19.5 °F 23.0 °F 85% 30.28 in 10.0 mi North 6.9 mph - N/A   Overcast
10:33 PM 26.6 °F 20.0 °F 21.2 °F 80% 30.22 in 9.0 mi North 5.8 mph - N/A   Overcast
10:56 PM 27.0 °F 20.5 °F 23.0 °F 85% 30.28 in 9.0 mi NNE 5.8 mph - N/A   Overcast
11:56 PM 27.0 °F - 23.0 °F 85% 30.29 in 9.0 mi Calm Calm - N/A   Overcast